Location: Unspecified
(0.0000°N, 0.0000°E)
Time: 01:15:06
(UTC+00:00)

N. Korean satellite - Pass Details

Date: 09 October 2017
Orbit: 459 x 517 km, 97.2° (Epoch: 21 October)

Event Time Altitude Azimuth Distance (km) Brightness Sun altitude
Rises 18:51:29 0° 184° (S) 2,626 10.4 -16.0°
Reaches altitude 10° 18:53:44 10° 194° (SSW) 1,732 9.6 -16.5°
Maximum altitude 18:57:06 33° 259° (WSW) 872 8.5 -17.4°
Drops below altitude 10° 19:00:26 10° 324° (NW) 1,701 9.7 -18.2°
Sets 19:02:38 0° 334° (NNW) 2,571 10.5 -18.7°
